SCP
1 1 0 0 0 0 0 0 0 0 0 0 0 0 0 0 0 0 0 1 1 1 1 1 1 2 1 2 2 2 2 2 2 2 2 2 3 3 2 2 1 1 1
1 1 0 0 0 0 0 0 0 0 0 0 0 0 0 0 0 0 0 1 1 1 1 1 1 1 1 1 2 2 2 2 2 2 2 2 2 3 2 2 1 1 1
1 1 0 0 0 0 0 0 0 0 0 0 0 0 0 0 0 0 0 0 1 1 1 1 1 1 1 1 2 2 2 2 2 2 2 2 2 3 2 2 1 1 1
1 1 0 0 0 0 0 0 0 0 0 0 0 0 0 0 0 0 0 0 0 1 1 1 1 1 1 1 2 2 2 2 3 3 2 2 2 2 2 2 2 1 1
1 1 1 1 0 0 0 0 0 0 0 0 0 0 0 0 0 0 0 0 0 0 0 1 1 1 1 1 2 2 2 2 3 3 3 2 2 2 2 2 1 1 1
2 1 1 1 0 0 0 0 0 0 0 0 0 0 0 0 0 0 0 0 0 0 0 0 0 1 1 1 2 2 2 2 2 2 3 2 2 1 1 1 1 1 1
4 3 1 1 0 0 0 0 0 0 0 0 0 0 0 0 0 0 0 0 0 0 0 0 0 0 0 1 1 2 2 2 2 2 2 2 2 1 1 1 1 0 0
6 4 2 1 0 0 0 0 0 0 0 0 0 0 0 0 0 0 0 0 0 0 0 0 0 0 0 0 1 1 2 2 2 2 2 2 1 1 1 1 1 1 0
4 3 2 1 0 0 0 0 0 0 0 0 0 0 0 0 0 0 0 0 0 0 0 0 0 0 0 0 0 1 1 1 1 1 1 1 1 1 1 1 1 1 0
2 2 1 1 1 0 0 0 0 0 0 0 0 0 0 0 0 0 0 0 0 0 0 0 0 0 0 0 0 0 1 1 1 1 1 0 0 0 0 1 1 0 0
1 1 1 1 0 0 0 0 0 0 0 0 0 0 0 0 0 0 0 0 0 0 0 0 0 0 0 0 0 0 0 1 1 1 1 0 0 0 0 0 0 0 0
1 1 1 0 0 0 0 0 0 0 0 0 0 0 0 0 0 0 0 0 0 0 0 0 0 0 0 0 0 0 0 0 1 1 0 0 0 0 0 0 0 0 0
1 1 1 0 0 0 0 0 0 0 0 0 0 0 0 0 0 0 0 0 0 0 0 0 0 0 0 0 0 0 0 1 1 1 0 0 0 0 0 0 0 0 0
1 1 1 1 0 0 0 1 1 1 0 0 0 0 0 0 0 0 0 0 0 0 0 0 0 0 0 0 0 0 0 1 1 0 0 0 0 0 0 0 0 0 0
1 1 1 1 1 1 1 1 1 1 0 0 0 0 0 0 0 0 0 0 0 0 0 0 0 0 0 0 0 0 0 0 1 0 0 0 0 0 0 0 0 0 0
1 1 1 0 0 0 0 0 0 0 0 0 0 0 0 0 0 0 0 0 0 0 0 0 0 0 0 0 0 0 0 0 0 0 0 0 0 0 0 0 0 0 0
0 0 0 0 0 0 0 0 0 0 0 0 0 0 0 0 0 0 0 0 0 0 0 0 0 0 0 0 0 0 0 0 0 0 0 0 0 0 0 0 0 0 0
0 0 0 0 0 0 0 0 0 0 0 0 0 0 0 0 0 0 0 0 0 0 0 0 0 0 0 0 0 0 0 0 0 0 0 0 0 0 0 0 0 0 0
0 0 0 0 0 0 0 0 0 0 0 0 0 0 0 0 0 0 1 0 0 0 0 0 0 0 0 0 0 0 0 0 0 0 0 0 0 0 0 0 0 0 0
0 0 0 0 0 0 0 0 0 0 0 0 0 0 0 1 1 1 0 0 0 0 0 0 0 0 0 0 0 0 0 0 0 0 0 0 0 0 0 0 0 0 0
0 0 0 0 0 0 0 0 0 0 0 0 0 0 0 0 1 0 0 0 0 0 0 0 0 0 0 0 0 0 0 0 0 0 0 0 0 0 0 0 0 0 0
0 0 0 0 0 0 0 0 0 0 0 0 0 0 0 0 0 0 0 0 0 0 0 0 0 0 0 0 0 0 0 0 0 0 0 0 0 0 0 0 0 0 0
0 0 0 0 0 0 0 0 0 0 0 0 0 0 0 0 0 0 0 0 0 0 0 0 0 0 0 0 0 0 0 0 0 0 0 0 0 0 0 0 0 0 0
0 0 0 0 0 0 0 0 0 0 0 0 0 0 0 0 0 0 0 0 0 0 0 0 0 0 0 0 0 0 0 0 0 0 0 0 0 0 0 0 0 0 0
0 0 0 0 0 0 0 0 0 0 0 0 0 0 0 0 0 0 0 0 0 0 0 0 0 0 0 0 0 0 0 0 0 0 0 0 0 0 0 0 0 0 0
0 0 0 0 0 0 0 0 0 0 0 0 0 0 0 0 0 0 0 0 0 0 0 0 0 0 0 0 0 0 0 0 0 0 0 0 0 0 0 0 0 0 0
Wind_Speed
4 3 2 2 3 2 2 2 2 2 2 2 2 3 3 3 2 2 1 2 2 2 2 3 3 2 2 3 3 3 3 4 4 5 5 5 5 4 4 3 3 3 2
4 4 3 3 3 3 3 2 2 2 2 1 2 3 4 3 3 2 1 2 2 2 2 3 3 3 3 2 2 3 3 3 3 4 5 5 5 4 4 3 3 3 2
6 5 4 4 4 3 3 2 2 1 2 1 2 2 3 3 3 2 2 1 1 2 3 3 3 3 3 3 2 2 3 3 3 3 4 4 4 4 4 4 4 4 4
7 5 4 5 4 3 3 3 2 2 1 1 1 1 1 2 3 2 2 2 1 1 2 3 3 3 3 3 3 2 2 2 3 3 3 4 4 4 5 5 5 5 5
8 6 5 4 4 3 3 3 2 2 2 2 2 1 1 2 2 3 3 3 2 2 1 2 3 2 3 3 3 3 3 3 3 3 3 3 3 3 4 4 5 5 5
8 7 5 5 4 3 3 3 3 2 2 2 2 1 0 1 2 2 3 3 3 3 3 2 1 1 3 3 3 4 3 3 3 3 3 3 3 3 3 4 5 5 6
7 7 5 4 4 4 5 5 3 3 2 2 2 1 1 1 2 2 2 3 4 4 3 3 2 1 1 3 3 4 5 4 4 3 3 3 2 2 2 3 3 4 5
7 7 6 5 5 4 4 4 3 3 2 3 3 2 0 2 2 2 2 3 4 3 4 5 4 3 2 1 2 4 4 5 5 4 4 3 2 2 2 3 3 3 4
6 5 6 5 5 4 4 4 4 5 3 2 2 4 3 4 2 2 1 2 2 3 3 3 4 5 4 3 3 4 5 5 6 5 4 4 3 3 2 2 3 3 4
6 6 6 6 6 5 5 5 4 3 4 3 1 1 2 3 3 1 2 1 1 3 3 4 4 5 5 4 5 6 7 7 7 7 6 5 4 3 3 2 3 3 4
5 6 6 6 5 5 6 5 5 4 3 3 3 2 2 1 1 2 2 2 1 2 3 4 3 4 5 5 5 7 9 8 9 9 8 7 6 5 5 4 4 4 4
2 4 5 5 5 4 5 5 5 5 4 4 3 3 3 3 3 3 3 2 2 2 2 2 3 4 4 5 7 10 11 10 10 9 8 8 7 6 6 6 6 5 5
2 3 3 3 4 4 4 4 5 5 5 5 4 3 3 3 3 3 2 2 2 2 2 2 3 3 3 3 5 9 10 11 11 10 9 8 7 7 7 7 7 6 6
2 2 3 3 3 4 4 4 3 4 4 4 5 4 3 3 3 3 3 3 2 1 2 3 2 2 2 2 4 7 6 10 10 10 9 9 8 7 7 8 8 7 7
2 3 3 3 3 3 4 4 2 3 3 4 4 4 3 3 3 3 3 3 3 2 2 2 2 2 1 2 3 3 4 7 9 9 9 9 8 8 8 8 7 6 6
3 3 3 3 3 3 2 2 2 2 3 2 2 3 3 2 3 3 3 3 3 3 2 2 2 1 1 1 2 2 3 6 7 8 9 9 9 9 9 9 8 7 7
3 2 3 3 3 2 2 2 2 3 2 1 1 2 3 2 2 2 3 3 3 3 3 2 1 1 1 1 1 0 1 2 2 6 7 8 9 9 10 10 10 9 8
5 4 3 3 3 3 2 2 2 2 2 2 2 2 1 1 2 2 2 3 2 3 3 2 1 1 1 1 1 1 1 1 2 4 6 7 8 9 9 10 10 10 9
6 6 5 5 5 4 3 2 2 2 2 2 2 2 2 2 2 2 2 2 2 2 2 2 0 1 1 1 2 2 2 2 1 2 3 4 5 7 7 8 9 9 9
7 7 6 5 5 4 4 3 2 2 2 1 1 1 1 2 2 3 2 3 2 3 2 1 1 1 1 1 1 1 2 2 2 2 3 2 2 3 4 5 7 7 8
8 6 7 6 5 4 4 4 3 3 2 2 2 1 1 1 2 2 2 3 3 3 2 2 1 1 1 1 1 1 1 1 2 2 2 2 3 2 3 3 3 4 5
7 7 7 6 6 5 8 6 3 2 2 2 2 2 2 2 3 4 5 5 4 4 3 2 1 1 0 0 1 1 1 1 1 2 2 2 2 3 3 2 4 4 3
7 7 7 7 6 7 9 8 6 3 2 2 2 2 2 3 4 4 5 7 6 5 4 4 3 1 1 0 1 1 1 2 1 2 2 2 3 3 3 5 8 7 6
6 6 7 7 6 8 11 9 8 5 4 4 3 2 2 2 3 4 5 5 5 5 4 3 3 2 1 1 1 1 1 2 2 2 2 2 3 3 3 4 10 11 10
6 6 6 7 7 8 12 10 8 4 4 5 4 4 3 3 4 7 6 6 5 4 6 9 8 7 7 6 4 2 2 2 2 3 3 2 2 2 3 4 7 11 12
5 5 6 7 8 8 12 11 8 4 5 4 5 5 7 5 6 6 5 5 5 3 4 5 7 8 7 8 9 4 2 2 2 2 3 2 2 2 2 3 4 6 7
Wind_Direction
206 211 218 216 215 206 209 228 245 258 257 246 232 223 227 222 213 207 271 266 229 224 209 180 164 153 138 139 149 153 149 152 151 150 150 148 147 145 145 145 146 148 151
206 209 218 217 216 205 203 212 234 255 263 245 241 225 218 209 206 203 211 273 256 242 244 224 199 189 182 168 164 165 166 163 164 165 164 168 168 175 182 187 192 199 208
208 209 215 220 217 199 195 201 224 234 246 229 236 221 202 199 195 208 213 232 275 260 249 241 222 210 207 202 192 183 177 181 186 187 183 185 190 199 208 215 223 231 235
210 206 214 225 212 186 183 189 192 194 212 199 203 214 189 187 200 209 219 231 241 263 271 263 242 226 225 223 221 208 192 187 186 192 193 197 205 213 223 234 240 246 251
208 205 215 222 201 185 186 195 175 176 188 196 190 181 191 196 203 210 220 229 231 232 233 272 259 236 239 242 238 229 214 207 205 207 203 198 206 219 229 239 247 255 262
205 202 210 213 192 186 187 179 168 162 171 171 161 113 255 223 203 217 224 224 224 229 222 226 241 259 253 254 250 244 233 225 222 224 220 211 213 226 235 243 254 265 270
202 197 204 201 188 195 199 180 158 157 153 132 106 59 342 319 237 235 226 223 225 223 216 214 204 200 258 264 255 252 243 234 232 231 232 225 217 225 243 259 271 278 280
200 201 194 191 184 189 189 178 160 150 151 151 143 131 286 320 285 238 229 226 228 212 218 217 206 206 211 221 243 251 259 253 242 240 238 230 226 242 258 268 281 290 295
194 192 191 185 178 177 187 185 175 162 160 168 161 151 162 217 263 294 261 242 228 216 224 212 214 214 212 212 225 240 244 244 244 243 238 235 233 245 248 271 295 302 303
183 180 180 180 176 173 172 179 170 166 153 162 170 162 162 163 166 264 308 293 249 230 231 228 222 216 212 211 219 224 231 234 239 240 241 236 234 236 246 268 292 297 300
181 175 175 173 176 174 172 170 168 168 162 165 170 163 152 145 141 162 247 293 308 260 235 227 227 223 214 213 215 224 226 228 232 236 241 243 241 243 250 260 272 283 294
165 168 169 169 169 169 175 177 177 176 178 177 178 174 167 168 178 176 204 234 262 283 269 240 230 229 220 214 223 225 223 223 226 230 237 245 248 253 260 265 268 273 285
147 159 156 159 159 167 176 176 177 178 183 184 185 187 186 183 161 166 179 206 230 272 294 273 242 234 229 213 225 227 226 222 223 226 227 234 240 249 261 272 276 275 281
118 130 140 148 153 157 164 167 170 176 177 186 195 191 190 194 183 177 172 172 202 259 277 270 284 252 247 223 227 226 230 225 222 224 226 228 231 236 247 260 272 279 286
96 116 128 135 142 148 156 154 166 183 177 185 192 195 196 197 195 198 186 177 173 203 250 266 281 305 271 237 227 212 222 231 226 224 226 228 230 233 239 246 254 262 272
79 100 112 121 126 133 139 142 157 176 180 187 189 199 205 202 199 193 190 187 185 180 215 248 251 270 288 268 217 208 224 238 238 232 229 229 231 232 235 237 240 243 245
61 83 100 108 113 121 130 145 169 167 172 182 180 189 210 200 196 189 177 176 185 174 206 246 254 289 307 335 0 316 226 220 241 244 239 237 237 236 236 235 236 237 239
47 53 69 81 87 89 97 138 159 156 155 166 173 176 202 189 184 178 170 174 178 180 187 212 288 339 343 359 1 342 334 252 241 258 254 250 245 241 238 237 236 235 236
41 43 54 62 63 63 63 61 88 116 133 144 147 158 178 163 168 157 155 159 162 160 165 166 180 1 356 14 31 22 19 4 320 290 276 268 261 254 246 241 239 238 237
41 41 42 46 50 48 45 43 51 64 78 84 111 147 164 162 165 151 144 140 135 130 131 131 119 42 9 14 43 32 17 13 4 9 4 355 334 305 276 259 247 242 243
37 38 40 34 30 34 31 31 32 37 44 49 53 57 76 130 149 143 130 131 127 118 114 113 109 86 43 38 34 15 32 5 17 12 1 7 4 6 352 331 308 279 260
30 34 32 26 24 23 20 32 41 42 48 56 49 41 49 63 91 100 112 122 131 132 135 128 122 118 89 72 57 41 53 46 21 4 13 2 12 13 360 355 351 343 322
30 31 25 22 18 12 24 33 44 56 57 54 50 46 59 65 80 91 89 85 77 86 119 136 130 140 141 146 118 71 56 58 45 349 4 15 10 17 8 16 20 27 26
27 25 23 19 17 15 25 38 54 58 58 51 45 53 74 61 82 107 98 81 66 57 70 86 106 107 112 124 126 119 111 85 58 22 17 41 9 12 12 22 30 38 40
30 27 23 22 20 15 26 40 51 52 56 49 43 48 67 70 86 105 103 96 80 61 66 77 79 76 71 71 78 82 69 69 50 18 15 44 12 4 21 25 26 36 41
28 28 31 25 22 19 26 40 48 54 54 45 39 36 43 61 84 96 101 106 101 80 75 68 59 51 49 47 49 58 80 89 83 37 6 23 18 18 48 24 24 27 33